FW6002 Weather Reports


Display with metric or nautical units.
time (UTC)temp
F
wind
direction
speed
MPH
gust
MPH
rain 1hr
in
rain 24hr
in
rain mn
in
humidity
%
barometer
mb
20260901161056 95 65 0.0 3.0 0.00 0.00 0.00 49 1017.1
20260901160555 95 149 0.0 3.0 0.00 0.00 0.00 50 1017.1
20260901160117 95 30 0.0 4.0 0.00 0.00 0.00 50 1016.9
20260901155556 95 5 0.0 4.0 0.00 0.00 0.00 51 1017.0
20260901155056 95 85 0.0 3.0 0.00 0.00 0.00 51 1017.0
20260901154600 93 0 1.0 3.0 0.00 0.00 0.00 52 1017.0
20260901154055 93 65 1.0 3.0 0.00 0.00 0.00 51 1016.9
20260901153556 93 32 0.0 4.0 0.00 0.00 0.00 53 1017.1
20260901153132 92 53 1.0 4.0 0.00 0.00 0.00 54 1017.1
20260901152556 92 81 1.0 4.0 0.00 0.00 0.00 55 1017.0
20260901152058 91 0 2.0 5.0 0.00 0.00 0.00 56 1017.1
20260901151608 90 62 1.0 5.0 0.00 0.00 0.00 57 1017.0
20260901151057 90 60 1.0 5.0 0.00 0.00 0.00 56 1017.0
20260901150555 90 63 1.0 3.0 0.00 0.00 0.00 57 1017.1
20260901150115 90 119 1.0 3.0 0.00 0.00 0.00 58 1017.2
20260901145557 89 0 0.0 3.0 0.00 0.00 0.00 61 1017.1
20260901145056 88 0 1.0 3.0 0.00 0.00 0.00 60 1017.1
20260901144608 88 0 0.0 3.0 0.00 0.00 0.00 62 1017.1
20260901144055 87 189 1.0 3.0 0.00 0.00 0.00 63 1017.2
20260901143555 87 169 0.0 3.0 0.00 0.00 0.00 62 1017.2
20260901143122 86 212 1.0 3.0 0.00 0.00 0.00 64 1017.3
20260901142555 85 187 0.0 2.0 0.00 0.00 0.00 66 1017.2
20260901142057 85 0 0.0 3.0 0.00 0.00 0.00 68 1017.3
20260901141623 84 0 0.0 3.0 0.00 0.00 0.00 68 1017.4
20260901141056 83 202 0.0 3.0 0.00 0.00 0.00 69 1017.3
20260901140555 83 82 1.0 3.0 0.00 0.00 0.00 69 1017.2
20260901140135 82 70 1.0 3.0 0.00 0.00 0.00 70 1017.1
20260901135600 81 49 1.0 3.0 0.00 0.00 0.00 72 1017.1
20260901135056 80 115 1.0 3.0 0.00 0.00 0.00 72 1017.2
20260901134604 80 0 0.0 2.0 0.00 0.00 0.00 73 1017.1
20260901134055 80 0 0.0 2.0 0.00 0.00 0.00 73 1017.2
20260901133557 80 0 0.0 2.0 0.00 0.00 0.00 73 1017.2
20260901133102 79 0 0.0 2.0 0.00 0.00 0.00 74 1017.1
20260901132557 79 63 0.0 2.0 0.00 0.00 0.00 75 1017.2
20260901132056 78 0 0.0 1.0 0.00 0.00 0.00 77 1017.1
20260901131612 78 0 0.0 1.0 0.00 0.00 0.00 78 1017.1
20260901131056 76 0 0.0 0.0 0.00 0.00 0.00 78 1017.1
20260901130556 75 0 0.0 0.0 0.00 0.00 0.00 79 1017.1
20260901130105 74 0 0.0 0.0 0.00 0.00 0.00 79 1017.1
20260901125555 74 0 0.0 0.0 0.00 0.00 0.00 80 1017.0
20260901125055 73 0 0.0 0.0 0.00 0.00 0.00 80 1016.8
20260901124601 73 0 0.0 0.0 0.00 0.00 0.00 80 1016.6
20260901124055 73 0 0.0 0.0 0.00 0.00 0.00 80 1016.7
20260901123558 73 0 0.0 0.0 0.00 0.00 0.00 79 1016.6
20260901123105 73 0 0.0 0.0 0.00 0.00 0.00 79 1016.6
20260901122555 73 0 0.0 0.0 0.00 0.00 0.00 79 1016.6
20260901122056 73 0 0.0 0.0 0.00 0.00 0.00 79 1016.4
20260901121607 73 0 0.0 0.0 0.00 0.00 0.00 79 1016.3
20260901121057 73 0 0.0 0.0 0.00 0.00 0.00 79 1016.3
20260901120555 73 0 0.0 0.0 0.00 0.00 0.00 79 1016.2
20260901120106 73 0 0.0 0.0 0.00 0.00 0.00 79 1016.3
20260901115556 73 0 0.0 0.0 0.00 0.00 0.00 79 1016.1
20260901115059 73 0 0.0 0.0 0.00 0.00 0.00 79 1016.2
20260901114601 73 0 0.0 0.0 0.00 0.00 0.00 78 1016.1
20260901114055 73 0 0.0 0.0 0.00 0.00 0.00 78 1016.3
20260901113555 74 0 0.0 0.0 0.00 0.00 0.00 77 1016.4
20260901113104 74 0 0.0 0.0 0.00 0.00 0.00 77 1016.3
20260901112556 74 0 0.0 0.0 0.00 0.00 0.00 77 1016.2
20260901112055 74 0 0.0 0.0 0.00 0.00 0.00 77 1016.3
20260901111602 74 0 0.0 0.0 0.00 0.00 0.00 77 1016.1
20260901111056 74 0 0.0 0.0 0.00 0.00 0.00 76 1016.2
20260901110555 74 0 0.0 0.0 0.00 0.00 0.00 76 1016.0
20260901105600 75 0 0.0 0.0 0.00 0.00 0.00 75 1016.0
20260901105058 75 0 0.0 0.0 0.00 0.00 0.00 74 1015.9
20260901104605 75 0 0.0 0.0 0.00 0.00 0.00 74 1016.0
20260901104055 75 0 0.0 0.0 0.00 0.00 0.00 75 1015.8
20260901103555 74 0 0.0 0.0 0.00 0.00 0.00 75 1015.9
20260901103108 74 0 0.0 0.0 0.00 0.00 0.00 75 1015.9
20260901102555 74 0 0.0 0.0 0.00 0.00 0.00 75 1016.0
20260901102055 74 0 0.0 0.0 0.00 0.00 0.00 75 1015.8
20260901101610 74 0 0.0 0.0 0.00 0.00 0.00 74 1015.9
20260901101055 74 0 0.0 0.0 0.00 0.00 0.00 74 1016.1
20260901100555 75 0 0.0 0.0 0.00 0.00 0.00 74 1016.0
20260901100101 75 0 0.0 0.0 0.00 0.00 0.00 73 1016.0
20260901095555 75 0 0.0 0.0 0.00 0.00 0.00 73 1016.0
20260901095055 76 0 0.0 0.0 0.00 0.00 0.00 72 1015.9
20260901094605 76 0 0.0 0.0 0.00 0.00 0.00 71 1015.9
20260901094058 76 0 0.0 0.0 0.00 0.00 0.00 70 1016.0
20260901093555 76 0 0.0 0.0 0.00 0.00 0.00 70 1016.0
20260901093110 77 0 0.0 0.0 0.00 0.00 0.00 70 1016.1
20260901092555 77 0 0.0 1.0 0.00 0.00 0.00 70 1016.0
20260901092055 77 0 0.0 1.0 0.00 0.00 0.00 69 1016.1
20260901091601 77 0 0.0 0.0 0.00 0.00 0.00 69 1016.0
20260901091055 77 0 0.0 0.0 0.00 0.00 0.00 69 1016.1
20260901090555 77 0 0.0 0.0 0.00 0.00 0.00 69 1016.1
20260901090059 77 0 0.0 1.0 0.00 0.00 0.00 69 1016.1
20260901085555 77 0 0.0 1.0 0.00 0.00 0.00 69 1015.9
20260901085054 76 0 0.0 0.0 0.00 0.00 0.00 69 1016.2
20260901084608 76 0 0.0 0.0 0.00 0.00 0.00 70 1015.9
20260901084055 76 0 0.0 0.0 0.00 0.00 0.00 70 1016.0
20260901083555 76 0 0.0 0.0 0.00 0.00 0.00 70 1015.9
20260901083108 76 0 0.0 0.0 0.00 0.00 0.00 70 1015.9
20260901082555 76 0 0.0 0.0 0.00 0.00 0.00 70 1016.0
20260901082055 76 0 0.0 0.0 0.00 0.00 0.00 70 1015.9
20260901081603 75 0 0.0 0.0 0.00 0.00 0.00 71 1015.9
20260901081054 76 0 0.0 0.0 0.00 0.00 0.00 70 1015.9
20260901080555 76 0 0.0 0.0 0.00 0.00 0.00 70 1015.6
20260901080207 76 0 0.0 0.0 0.00 0.00 0.00 71 1015.7
20260901075557 76 0 0.0 0.0 0.00 0.00 0.00 71 1015.8
20260901075055 75 0 0.0 0.0 0.00 0.00 0.00 71 1015.8
20260901074608 75 0 0.0 0.0 0.00 0.00 0.00 71 1015.5
20260901074055 75 0 0.0 0.0 0.00 0.00 0.00 70 1015.6
20260901073556 75 0 0.0 0.0 0.00 0.00 0.00 70 1015.6
20260901073105 75 0 0.0 0.0 0.00 0.00 0.00 69 1015.7
20260901072555 75 0 0.0 0.0 0.00 0.00 0.00 70 1015.6
20260901072058 75 0 0.0 0.0 0.00 0.00 0.00 71 1015.6
20260901071609 75 0 0.0 0.0 0.00 0.00 0.00 71 1015.6
20260901071055 75 0 0.0 0.0 0.00 0.00 0.00 71 1015.6
20260901070555 75 0 0.0 0.0 0.00 0.00 0.00 70 1015.4
20260901070132 75 0 0.0 0.0 0.00 0.00 0.00 70 1015.5
20260901065555 75 0 0.0 0.0 0.00 0.00 0.00 70 1015.5
20260901065055 75 0 0.0 0.0 0.00 0.00 0.00 68 1015.4
20260901064611 76 0 0.0 0.0 0.00 0.00 0.00 69 1015.3
20260901064055 76 0 0.0 0.0 0.00 0.00 0.00 69 1015.2
20260901063555 76 0 0.0 0.0 0.00 0.00 0.00 69 1015.3
20260901063105 76 0 0.0 0.0 0.00 0.00 0.00 69 1015.4
20260901062556 76 0 0.0 0.0 0.00 0.00 0.00 68 1015.4
20260901062056 76 0 0.0 0.0 0.00 0.00 0.00 67 1015.3
20260901061610 77 0 0.0 0.0 0.00 0.00 0.00 67 1015.2
20260901061057 77 0 0.0 0.0 0.00 0.00 0.00 66 1015.2
20260901060556 77 0 0.0 0.0 0.00 0.00 0.00 66 1015.1
20260901060101 78 0 0.0 0.0 0.00 0.00 0.00 65 1015.0
20260901055556 78 0 0.0 0.0 0.00 0.00 0.00 63 1014.8
20260901055055 78 0 0.0 0.0 0.00 0.00 0.00 63 1014.7
20260901054608 78 0 0.0 0.0 0.00 0.00 0.00 63 1014.8
20260901054056 78 0 0.0 0.0 0.00 0.00 0.00 63 1014.7
20260901053556 78 0 0.0 0.0 0.00 0.00 0.00 63 1014.7
20260901053110 78 0 0.0 0.0 0.00 0.00 0.00 63 1014.7
20260901052557 79 0 0.0 0.0 0.00 0.00 0.00 63 1014.6
20260901052058 79 0 0.0 0.0 0.00 0.00 0.00 62 1014.6
20260901051601 79 0 0.0 0.0 0.00 0.00 0.00 62 1014.7
20260901051055 79 0 0.0 0.0 0.00 0.00 0.00 62 1014.6
20260901050557 80 0 0.0 0.0 0.00 0.00 0.00 61 1014.5
20260901050107 80 0 0.0 0.0 0.00 0.00 0.00 61 1014.3
20260901045555 80 0 0.0 0.0 0.00 0.00 0.00 61 1014.4
20260901045055 80 0 0.0 0.0 0.00 0.00 0.00 61 1014.3
20260901044623 80 0 0.0 0.0 0.00 0.00 0.00 61 1014.4
20260901044055 80 0 0.0 0.0 0.00 0.00 0.00 61 1014.4
20260901043557 81 0 0.0 0.0 0.00 0.00 0.00 60 1014.4
20260901043102 81 0 0.0 0.0 0.00 0.00 0.00 59 1014.5
20260901042557 81 0 0.0 0.0 0.00 0.00 0.00 58 1014.5
20260901042055 81 0 0.0 0.0 0.00 0.00 0.00 58 1014.6
20260901041601 81 0 0.0 0.0 0.00 0.00 0.00 59 1014.5
20260901041056 81 0 0.0 0.0 0.00 0.00 0.00 60 1014.5
20260901040555 81 0 0.0 0.0 0.00 0.00 0.00 60 1014.4
20260901040108 81 0 0.0 0.0 0.00 0.00 0.00 60 1014.5
20260901035555 81 0 0.0 0.0 0.00 0.00 0.00 61 1014.4
20260901035054 81 0 0.0 0.0 0.00 0.00 0.00 60 1014.6
20260901034559 81 0 0.0 0.0 0.00 0.00 0.00 61 1014.6
20260901034054 81 0 0.0 0.0 0.00 0.00 0.00 61 1014.3
20260901033554 82 0 0.0 0.0 0.00 0.00 0.00 60 1014.3
20260901033103 82 0 0.0 0.0 0.00 0.00 0.00 60 1014.2
20260901032558 82 0 0.0 0.0 0.00 0.00 0.00 60 1014.2
20260901032054 82 0 0.0 0.0 0.00 0.00 0.00 60 1014.4
20260901031605 82 0 0.0 0.0 0.00 0.00 0.00 59 1014.3
20260901031054 83 0 0.0 0.0 0.00 0.00 0.00 58 1014.3
20260901030557 84 0 0.0 0.0 0.00 0.00 0.00 57 1014.3
20260901030059 84 0 0.0 0.0 0.00 0.00 0.00 56 1014.3
20260901025554 84 0 0.0 0.0 0.00 0.00 0.00 56 1014.2
20260901025055 85 0 0.0 0.0 0.00 0.00 0.00 55 1014.0
20260901024604 85 0 0.0 0.0 0.00 0.00 0.00 54 1014.1
20260901024053 85 0 0.0 0.0 0.00 0.00 0.00 54 1013.9
20260901023551 85 0 0.0 0.0 0.00 0.00 0.00 55 1013.9
20260901023102 85 0 0.0 0.0 0.00 0.00 0.00 54 1013.8
20260901022554 86 0 0.0 0.0 0.00 0.00 0.00 54 1013.9
20260901022054 86 0 0.0 0.0 0.00 0.00 0.00 53 1013.8
20260901021611 86 0 0.0 1.0 0.00 0.00 0.00 52 1013.8
20260901021057 86 0 0.0 1.0 0.00 0.00 0.00 51 1013.8
20260901020555 87 0 0.0 0.0 0.00 0.00 0.00 50 1013.6
20260901020105 87 0 0.0 0.0 0.00 0.00 0.00 50 1013.6
20260901015554 88 0 0.0 0.0 0.00 0.00 0.00 49 1013.5
20260901015054 88 0 0.0 0.0 0.00 0.00 0.00 48 1013.5
20260901014604 89 0 0.0 0.0 0.00 0.00 0.00 47 1013.2
20260901014054 89 0 0.0 1.0 0.00 0.00 0.00 46 1013.3
20260901013554 90 0 0.0 1.0 0.00 0.00 0.00 45 1013.3
20260901013119 91 0 0.0 1.0 0.00 0.00 0.00 45 1013.3
20260901012555 91 0 0.0 2.0 0.00 0.00 0.00 44 1013.3
20260901012054 92 0 0.0 3.0 0.00 0.00 0.00 43 1013.2
20260901011559 92 0 0.0 3.0 0.00 0.00 0.00 42 1013.1
20260901011054 93 0 0.0 3.0 0.00 0.00 0.00 42 1013.0
20260901010555 93 0 0.0 3.0 0.00 0.00 0.00 41 1013.0
20260901010059 93 59 1.0 3.0 0.00 0.00 0.00 41 1013.1
20260901005554 93 96 0.0 2.0 0.00 0.00 0.00 41 1013.0
20260901005053 93 0 0.0 4.0 0.00 0.00 0.00 40 1013.0
20260901004605 94 0 0.0 4.0 0.00 0.00 0.00 40 1013.0
20260901004053 94 0 0.0 3.0 0.00 0.00 0.00 39 1012.9
20260901003553 94 0 0.0 3.0 0.00 0.00 0.00 39 1013.0
20260901003105 95 0 1.0 3.0 0.00 0.00 0.00 38 1012.8
20260901002555 95 199 0.0 3.0 0.00 0.00 0.00 37 1012.9
20260901002055 95 0 1.0 5.0 0.00 0.00 0.00 37 1012.9
20260901001606 96 69 0.0 5.0 0.00 0.00 0.00 37 1012.9
20260901001058 96 62 1.0 4.0 0.00 0.00 0.00 36 1013.0
20260901000555 96 171 1.0 4.0 0.00 0.00 0.00 36 1012.9
20260901000106 97 49 1.0 6.0 0.00 0.00 0.00 36 1012.8
20260831235555 97 133 0.0 6.0 0.00 0.00 0.00 35 1012.9
20260831235056 97 0 1.0 6.0 0.00 0.00 0.00 35 1013.0
20260831234602 97 67 1.0 6.0 0.00 0.00 0.00 34 1013.0
20260831234055 97 51 0.0 6.0 0.00 0.00 0.00 34 1013.1
20260831233554 97 0 2.0 6.0 0.00 0.00 0.00 33 1012.9
20260831233102 98 211 1.0 5.0 0.00 0.00 0.00 32 1013.1
20260831232553 98 0 1.0 4.0 0.00 0.00 0.00 32 1013.1
20260831232053 98 59 1.0 4.0 0.00 0.00 0.00 32 1013.0
20260831231627 98 46 1.0 4.0 0.00 0.00 0.00 33 1013.1
20260831231054 98 0 0.0 7.0 0.00 0.00 0.00 32 1013.0
20260831230554 98 219 1.0 7.0 0.00 0.00 0.00 31 1012.9
20260831230105 98 235 2.0 7.0 0.00 0.00 0.00 31 1013.1
20260831225553 98 107 1.0 5.0 0.00 0.00 0.00 32 1013.0
20260831225054 98 239 1.0 5.0 0.00 0.00 0.00 31 1013.0
20260831224637 98 192 1.0 7.0 0.00 0.00 0.00 31 1012.9
20260831224054 98 174 1.0 7.0 0.00 0.00 0.00 32 1012.9
20260831223554 99 211 2.0 7.0 0.00 0.00 0.00 31 1013.1
20260831223102 99 47 2.0 5.0 0.00 0.00 0.00 32 1013.1
20260831222553 98 69 0.0 5.0 0.00 0.00 0.00 32 1013.1
20260831222051 98 67 1.0 5.0 0.00 0.00 0.00 32 1013.2
20260831221614 99 206 1.0 8.0 0.00 0.00 0.00 33 1013.0
20260831221054 99 0 2.0 8.0 0.00 0.00 0.00 32 1013.0
20260831220554 99 236 1.0 8.0 0.00 0.00 0.00 32 1013.3
20260831220107 99 215 1.0 6.0 0.00 0.00 0.00 32 1013.2
20260831215554 99 155 1.0 6.0 0.00 0.00 0.00 32 1013.2
20260831215054 99 65 1.0 6.0 0.00 0.00 0.00 33 1013.3
20260831214605 100 219 1.0 6.0 0.00 0.00 0.00 31 1013.4
20260831214056 101 237 1.0 6.0 0.00 0.00 0.00 31 1013.3
20260831213555 100 57 1.0 7.0 0.00 0.00 0.00 32 1013.4
20260831213101 101 57 1.0 7.0 0.00 0.00 0.00 33 1013.6
20260831212556 101 0 2.0 7.0 0.00 0.00 0.00 33 1013.5
20260831212058 100 19 2.0 6.0 0.00 0.00 0.00 33 1013.6
20260831211610 101 223 1.0 7.0 0.00 0.00 0.00 33 1013.5
20260831211054 101 44 2.0 7.0 0.00 0.00 0.00 34 1013.8
20260831210554 99 47 1.0 8.0 0.00 0.00 0.00 39 1013.8
20260831210103 100 130 1.0 8.0 0.00 0.00 0.00 34 1013.7
20260831205554 101 64 3.0 8.0 0.00 0.00 0.00 33 1013.9
20260831205054 102 89 2.0 7.0 0.00 0.00 0.00 33 1013.8
20260831204604 102 239 1.0 7.0 0.00 0.00 0.00 33 1013.7
20260831204055 102 250 2.0 7.0 0.00 0.00 0.00 34 1014.0
20260831203556 101 223 2.0 7.0 0.00 0.00 0.00 35 1013.9
20260831203105 100 60 2.0 7.0 0.00 0.00 0.00 35 1014.3
20260831202555 102 71 2.0 7.0 0.00 0.00 0.00 34 1014.2
20260831202054 103 155 1.0 9.0 0.00 0.00 0.00 33 1014.3
20260831201602 102 232 2.0 9.0 0.00 0.00 0.00 34 1014.4
20260831201056 101 153 2.0 6.0 0.00 0.00 0.00 35 1014.5
20260831200555 101 75 1.0 8.0 0.00 0.00 0.00 34 1014.5
20260831200105 101 134 1.0 8.0 0.00 0.00 0.00 35 1014.5
20260831195559 101 92 3.0 8.0 0.00 0.00 0.00 34 1014.9
20260831195056 98 54 1.0 5.0 0.00 0.00 0.00 37 1014.8
20260831194620 98 0 1.0 6.0 0.00 0.00 0.00 38 1014.8
20260831194058 97 59 2.0 7.0 0.00 0.00 0.00 38 1015.0
20260831193557 97 115 1.0 7.0 0.00 0.00 0.00 38 1015.1
20260831193103 99 96 2.0 10.0 0.00 0.00 0.00 37 1015.1
20260831192555 100 180 3.0 10.0 0.00 0.00 0.00 36 1015.1
20260831192055 98 172 1.0 6.0 0.00 0.00 0.00 38 1015.0
20260831191603 99 65 2.0 6.0 0.00 0.00 0.00 37 1015.0
20260831191058 100 106 2.0 6.0 0.00 0.00 0.00 37 1015.2
20260831190556 98 209 1.0 6.0 0.00 0.00 0.00 37 1015.3
20260831190135 101 342 2.0 10.0 0.00 0.00 0.00 35 1015.3
20260831185556 101 244 1.0 10.0 0.00 0.00 0.00 36 1015.3
20260831185056 100 0 2.0 10.0 0.00 0.00 0.00 36 1015.3
20260831184603 99 13 2.0 6.0 0.00 0.00 0.00 36 1015.5
20260831184055 97 118 1.0 9.0 0.00 0.00 0.00 39 1015.5
20260831183557 97 168 2.0 9.0 0.00 0.00 0.00 37 1015.7
20260831183102 98 261 3.0 9.0 0.00 0.00 0.00 38 1015.6
20260831182557 97 149 2.0 7.0 0.00 0.00 0.00 37 1015.9
20260831182057 99 15 2.0 7.0 0.00 0.00 0.00 37 1015.9
20260831181610 101 348 1.0 9.0 0.00 0.00 0.00 35 1016.0
20260831181057 103 186 0.0 9.0 0.00 0.00 0.00 34 1016.0
20260831180555 101 57 2.0 9.0 0.00 0.00 0.00 37 1016.1
20260831180105 100 66 1.0 9.0 0.00 0.00 0.00 37 1016.1
20260831175555 100 26 1.0 9.0 0.00 0.00 0.00 39 1016.2
20260831175056 99 136 2.0 9.0 0.00 0.00 0.00 37 1016.3
20260831174605 98 191 2.0 9.0 0.00 0.00 0.00 38 1016.5
20260831174057 99 116 3.0 9.0 0.00 0.00 0.00 37 1016.5
20260831173559 98 159 2.0 7.0 0.00 0.00 0.00 37 1016.7
20260831173101 98 196 2.0 7.0 0.00 0.00 0.00 38 1016.8
20260831172558 99 14 2.0 7.0 0.00 0.00 0.00 39 1016.7
20260831172055 98 67 1.0 8.0 0.00 0.00 0.00 42 1016.8
20260831171605 98 219 2.0 8.0 0.00 0.00 0.00 39 1017.1
20260831171056 99 88 1.0 6.0 0.00 0.00 0.00 39 1017.2
20260831170555 98 50 2.0 6.0 0.00 0.00 0.00 39 1017.0
20260831170106 97 293 2.0 5.0 0.00 0.00 0.00 40 1017.0
20260831165556 98 63 1.0 6.0 0.00 0.00 0.00 39 1017.0
20260831165056 97 43 2.0 8.0 0.00 0.00 0.00 41 1017.1
20260831164616 96 127 2.0 9.0 0.00 0.00 0.00 41 1017.0
20260831164056 96 41 2.0 9.0 0.00 0.00 0.00 42 1017.1
20260831163556 96 360 2.0 8.0 0.00 0.00 0.00 43 1017.0
20260831163100 95 36 1.0 7.0 0.00 0.00 0.00 44 1017.2
20260831162557 95 61 2.0 7.0 0.00 0.00 0.00 44 1017.0
20260831162057 96 37 1.0 4.0 0.00 0.00 0.00 45 1017.1
20260831161601 96 32 1.0 5.0 0.00 0.00 0.00 45 1017.1